Location: Arborea
(39.7744°N, 8.5819°E)
Time: 12:10:57
(UTC+00:00)

OAO 3 Rocket - Pass Details

Date: 01 June 2022
Orbit: 628 x 681 km, 35.0° (Epoch: 02 July)

Event Time Altitude Azimuth Distance (km) Brightness Sun altitude
Rises 19:23:18 0° 267° (W) 2,979 7.5 -6.6°
Reaches altitude 10° 19:26:18 10° 249° (WSW) 2,076 6.2 -7.0°
Maximum altitude 19:29:32 18° 206° (SSW) 1,622 5.1 -7.5°
Drops below altitude 10° 19:32:48 10° 164° (SSE) 2,091 5.3 -8.0°
Enters shadow 19:33:49 - 157° (SSE) 2,370 5.5 -8.2°
